Volver al catálogo

STARLINK-3200

ActivoComunicacionesVLEO
NORAD 49753·PAYLOAD·🇺🇸 United States

Lanzado Dec 2, 2021 desde Cape Canaveral Space Force Station

Loading…

Próximos Pases (próximas 24 horas)

TLE

ActualizadoSource: CelesTrak SupGP

Época: Sep 14, 2026, 20:48 UTC

1 49753C 21115AF  26257.86715278 -.00009114  00000+0 -26934-3 0  2574
2 49753  53.1601   8.0838 0001249  78.9308  49.5756 15.34386808    17

Sigue STARLINK-3200 en tiempo real con AllMySat

Download on the App Store